Location: Newark
(44.2886°N, 4.8431°E)
Time: 15:43:52
(UTC+00:00)

ZACube-1 - Pass Details

Date: 26 November 2020
Orbit: 584 x 665 km, 97.6° (Epoch: 14 January)

Event Time Altitude Azimuth Distance (km) Brightness Sun altitude
Rises 04:00:31 0° 28° (NNE) 2,821 ? -30.0°
Reaches altitude 10° 04:03:14 10° 47° (NE) 1,918 ? -29.5°
Maximum altitude 04:06:11 19° 92° (E) 1,436 ? -28.9°
Drops below altitude 10° 04:09:09 10° 138° (SE) 1,923 ? -28.4°
Sets 04:11:52 0° 157° (SSE) 2,831 ? -27.9°
